Find DMSP 10533

NORAD ID: 7816 Int'l Des: 1975-043 Owner: SAMSO Country: US operational
LEOCIRCULARRETROGRADESSO

Aktuelle Ansicht

3D-Globus wird geladen...

Über DMSP 10533

Beschreibung wird geladen...

Nächste Überflüge

Passes for default location (London). Set your location on the main map for personalized predictions.

Höhenverlauf

Loading altitude history...

Zweizeiliger Elementsatz

1 7816U 75043A 26150.58307334 .00000271 00000-0 13221-3 0 9990
2 7816 98.6111 356.9767 0050852 229.6015 130.0722 14.25246996357332
Epoch: 30. Mai 2026 • Age: 17 hours

Aktueller Status

Höhe 844.3 km
Geschwindigkeit 7.42 km/s
Subsatellitenpunkt 24.61°N, 0.53°E
Typ other

Most Searched